星链-5480 (STARLINK-5480 )

导读

STARLINK-5480是美国SpaceX公司星链(Starlink)星座中的一颗低轨卫星互联网卫星,于2023年2月17日由猎鹰9号运载火箭发射入轨。它属于星链第二代卫星组网的组成部分,运行在近地轨道,配备相控阵天线与霍尔推进器,可自主规避太空碎片,为全球提供高速低延迟的宽带互联网服务,是星链计划规模化组网过程中的一颗标准卫星。

Basic Information
目录编号:
55664
目录名称:
STARLINK-5480
国际标识:
2023-021AN
轨道中心:
EARTH
卫星名称:
星链-5480
卫星全名:
星链-5480 (STARLINK-5480 )
卫星状态:
在轨 (已飞行1296 天)
发射日期:
2023-02-17 UTC
国别 :
美国 (US)
星等 :
--
Orbit Information
数据来源 国际轨道数据
星历时间: 2026-09-05T03:33:24+0800
11小时前
查看轨道信息
半长轴: 6950.224km
偏心率: 0.0002937
轨道倾角: 69.999°
近地点辐角 265.667°
升交点赤经 72.903°
平近点角 94.415°
近地点: 570.045km
远地点: 574.129km
周期: 96.108分钟
每日圈数: 14.983201
Detailed Information
固有亮度:
5
最大亮度:
2.5
卫星平台:
Starlink v1.5
覆盖范围:
全球
运营商:
太空探索技术公司
运营商所在国:
美国
制造商(研发单位):
太空探索技术公司
制造商所在国:
美国
使用方式:
暂无
Satellite Introduction
星链(Starlink)计划是由太空探索技术公司(SpaceX)提出的一个巨型低轨卫星互联网星座项目,计划在2019年至2024年间在太空搭建由约1.2万颗卫星组成的“星链”网络,其中1584颗将部署在地球上空550千米处的近地轨道,并从2020年开始工作。该卫星仍在工作。
2D Orbit Map
3D Orbit Map
Orbit Altitude Analysis Chart
Orbit Inclination Analysis Chart
Orbit Comprehensive Analysis Chart
View Comprehensive Chart
Conjunction Data List
Event ID Objects TCA Miss Dist (km) Collision Risk Probability Collision Risk Index (CRI) Action
CDM_260907-112104-914305-566422
2026-09-07T
11:21:51+0000
2.371 km
极远距离
1.688636E-6 低风险 0.4
CDM_260906-070404-389005-566424
GRUS-1A (43890)
2026-09-06T
07:04:50+0000
2.449 km
极远距离
1.124893E-6 低风险 0.36
CDM_260905-075303-091205-566423
2026-09-05T
07:53:06+0000
2.809 km
极远距离
1.045737E-6 低风险 0.35
CDM_260906-084104-389005-566422
GRUS-1A (43890)
2026-09-06T
08:41:01+0000
2.825 km
极远距离
9.088142E-7 极低风险 0.34